Location: *
(43.9905°S, 176.4941°W)
Time: 21:49:03
(UTC+00:00)

Cosmos 921 Rocket - Pass Details

Date: 08 December 2019
Orbit: 571 x 632 km, 75.8° (Epoch: 29 January)

Event Time Altitude Azimuth Distance (km) Brightness Sun altitude
Rises 08:28:38 0° 340° (NNW) 2,905 6.2 -10.5°
Reaches altitude 10° 08:30:52 10° 338° (NNW) 2,013 5.4 -10.8°
Maximum altitude 08:35:22 78° 252° (WSW) 662 3.3 -11.3°
Drops below altitude 10° 08:39:59 10° 165° (SSE) 2,053 6.2 -11.9°
Sets 08:42:17 0° 163° (SSE) 2,969 7.0 -12.2°
